Epoch 2024 Mar. 31.0 TT = JDT 2460400.5 T 2025 May 14.85498 TT Rudenko q 4.8213353 (2000.0) P Q z -0.0004514 Peri. 354.33990 -0.45483176 -0.35862668 +/-0.0000373 Node 119.20819 +0.84934595 -0.44996524 e 1.0021764 Incl. 69.05502 +0.26784236 +0.81787419 >From 69 observations 2023 Dec. 10-2024 Feb. 20, mean residual 0".4.
m1 = 8.5 + 5 logΔ + 10.0 log r